Карточка аэропорта UATG

Внимание!
Информация на этой странице в стадии наполнения.
Если вы не увидели какой-то информации, или заметили неточность - пожалуйста сообщите нам!
Спасибо!
Команда RU-STAFF
Название аэропортаАтырау
Название аэропорта (англ.)Atyrau
Превышение-72 ft. (-21.9 m.)
Координаты47°7.332', 51°49.764'
Высота перехода10000ft
Эшелон переходаFL120, QNH<733:FL130
Коды ответчика3450-3457, 3560-3567
Зона ОрВДАктобе РПИ (UATT)
Данные METARUATG 150230Z 16004MPS 0300 R14/0400N FG VV001 14/13 Q1014 NOSIG RMK QBB050 QFE762/1016
Проноз погоды (TAF)UATG 142300Z 1500/1524 VRB02MPS 3100 -SHRA BR BKN011 BKN030CB TX18/1510Z TN12/1503Z TEMPO 1500/1503 0300 FG VV001 BECMG 1504/1506 22007MPS BECMG 1508/1510 22007G12MPS PROB40 TEMPO 1509/1513 TS BECMG 1513/1515 23007MPS 9999 NSW
NOTAMshow/hide NOTAM
AWOS   TABLE

Информация о ВПП

ВПП Длина ВПП (м.) Покрытие Курс ВПП Частота ILS
143000Асфальтобетон149109.9
323000Асфальтобетон329108.3

Диспетчерские позиции

Позывной Наименование органа УВД Частота
UATG_APPАтырау Подход123.7
UATG_TWRАтырау Вышка118.1



Спутниковое изображение